WXM80 ListenWXM80 Stop

You find our weather info also at:

UK Metoffice

WeatherCloud

Weather Underground

Northeastern Weather Network

AWEKAS

Citizen Weather Observer Program (CWOP)

HAMweather, WeatherForYou, PWS Weather


Weather Underground History page Text

Daily Summary for February 2, 2017 Units:  English    Metric   Both
« Previous Day
Next Day »
Daily Weekly Monthly Yearly Custom
  High: Low: Average:
Temperature: 44.5 °F 31.2 °F 37 °F
Dew Point: 31.5 °F 19.0 °F 25.5 °F
Humidity: 81 % 41 % 64 %
Wind Speed: 10.2 mph 0.0 mph 3.5 mph
Wind Gust: 17.3 mph - -
Wind:- - West
Pressure: 30.16 in 29.98 in -
Precipitation: 0.00 in    
Historical Graphs
 
 
Tabular Data for February 2, 2017
Time Temperature Dew Point Pressure Wind Wind Speed Wind Gust Humidity Rainfall Rate (Hourly)
00:01 37.7 °F 31.5 °F 30.00 in WSW 2.0 mph 2.3 mph 78 % 0.00 in
00:06 37.5 °F 31.3 °F 30.00 in West 2.3 mph 8.1 mph 78 % 0.00 in
00:11 37.4 °F 31.2 °F 30.00 in WNW 1.9 mph 5.8 mph 78 % 0.00 in
00:16 37.3 °F 31.1 °F 30.00 in WSW 3.7 mph 5.8 mph 78 % 0.00 in
00:21 37.1 °F 31.2 °F 30.00 in West 2.9 mph 5.0 mph 79 % 0.00 in
00:26 37.0 °F 31.1 °F 30.00 in West 2.3 mph 3.5 mph 79 % 0.00 in
00:31 36.8 °F 30.9 °F 30.00 in West 3.9 mph 8.1 mph 79 % 0.00 in
00:36 36.8 °F 30.9 °F 30.01 in WNW 3.4 mph 6.9 mph 79 % 0.00 in
00:41 36.7 °F 30.8 °F 30.01 in SW 6.1 mph 6.9 mph 79 % 0.00 in
00:46 36.7 °F 30.5 °F 30.01 in West 2.1 mph 5.0 mph 78 % 0.00 in
00:51 36.6 °F 30.7 °F 30.01 in West 0.4 mph 1.2 mph 79 % 0.00 in
00:56 36.6 °F 30.7 °F 30.00 in West 0.9 mph 3.5 mph 79 % 0.00 in
01:01 36.6 °F 30.7 °F 30.00 in WNW 1.6 mph 3.5 mph 79 % 0.00 in
01:06 36.5 °F 30.6 °F 30.00 in West 3.4 mph 3.5 mph 79 % 0.00 in
01:11 36.4 °F 30.5 °F 30.00 in WNW 2.9 mph 5.8 mph 79 % 0.00 in
01:17 36.3 °F 30.1 °F 30.00 in West 1.8 mph 4.6 mph 78 % 0.00 in
01:22 36.2 °F 30.0 °F 30.00 in WNW 2.4 mph 5.8 mph 78 % 0.00 in
01:27 36.1 °F 29.9 °F 30.00 in West 2.9 mph 6.9 mph 78 % 0.00 in
01:32 36.0 °F 29.8 °F 30.00 in WNW 2.5 mph 4.6 mph 78 % 0.00 in
01:33 36.0 °F 29.8 °F 30.00 in WNW 1.0 mph 5.0 mph 78 % 0.00 in
01:38 35.9 °F 29.7 °F 30.00 in WNW 2.0 mph 7.0 mph 78 % 0.00 in
01:43 35.9 °F 29.7 °F 30.00 in WNW 3.0 mph 7.0 mph 78 % 0.00 in
01:48 35.8 °F 29.6 °F 30.00 in WNW 1.0 mph 4.0 mph 78 % 0.00 in
01:53 35.8 °F 29.6 °F 30.01 in WNW 1.0 mph 7.0 mph 78 % 0.00 in
01:59 35.7 °F 29.5 °F 30.01 in WSW 1.6 mph 4.6 mph 78 % 0.00 in
02:04 35.6 °F 29.4 °F 30.01 in WSW 0.8 mph 3.5 mph 78 % 0.00 in
02:09 35.5 °F 29.0 °F 30.00 in WSW 1.5 mph 3.5 mph 77 % 0.00 in
02:14 35.4 °F 28.9 °F 30.01 in WSW 2.5 mph 3.5 mph 77 % 0.00 in
02:19 35.3 °F 28.5 °F 30.01 in WSW 1.8 mph 3.5 mph 76 % 0.00 in
02:24 35.2 °F 28.1 °F 30.01 in WNW 0.9 mph 3.5 mph 75 % 0.00 in
02:29 35.2 °F 28.1 °F 30.01 in West 0.8 mph 3.5 mph 75 % 0.00 in
02:34 35.1 °F 28.0 °F 30.02 in West 2.2 mph 3.5 mph 75 % 0.00 in
02:39 35.1 °F 28.0 °F 30.02 in WNW 2.0 mph 5.0 mph 75 % 0.00 in
02:44 35.2 °F 28.1 °F 30.02 in WSW 2.3 mph 4.6 mph 75 % 0.00 in
02:49 35.2 °F 28.1 °F 30.02 in WSW 1.5 mph 4.0 mph 75 % 0.00 in
02:54 35.2 °F 27.7 °F 30.02 in WSW 2.3 mph 3.5 mph 74 % 0.00 in
02:59 35.2 °F 27.7 °F 30.02 in WSW 0.4 mph 2.3 mph 74 % 0.00 in
03:04 35.2 °F 28.1 °F 30.02 in Calm   1.2 mph 75 % 0.00 in
03:09 35.2 °F 28.1 °F 30.02 in WSW 2.1 mph 2.3 mph 75 % 0.00 in
03:14 35.1 °F 28.0 °F 30.02 in WSW 0.1 mph 1.2 mph 75 % 0.00 in
03:19 35.0 °F 27.9 °F 30.03 in WSW 0.2 mph 1.2 mph 75 % 0.00 in
03:24 34.9 °F 27.8 °F 30.03 in WSW 1.5 mph 2.3 mph 75 % 0.00 in
03:29 34.7 °F 27.6 °F 30.03 in WSW 0.6 mph 2.0 mph 75 % 0.00 in
03:34 34.5 °F 27.4 °F 30.03 in WSW 0.1 mph 2.3 mph 75 % 0.00 in
03:39 34.3 °F 27.2 °F 30.03 in WSW 0.9 mph 2.3 mph 75 % 0.00 in
03:44 34.1 °F 27.0 °F 30.03 in WSW 1.0 mph 2.3 mph 75 % 0.00 in
03:49 34.0 °F 26.9 °F 30.02 in Calm     75 % 0.00 in
03:54 33.7 °F 26.6 °F 30.02 in WSW 0.5 mph 1.2 mph 75 % 0.00 in
03:59 33.5 °F 26.4 °F 30.02 in Calm     75 % 0.00 in
04:05 33.3 °F 26.5 °F 30.02 in WSW 0.9 mph 2.3 mph 76 % 0.00 in
04:10 33.1 °F 26.7 °F 30.02 in Calm     77 % 0.00 in
04:15 32.8 °F 26.4 °F 30.02 in WSW 0.9 mph 2.3 mph 77 % 0.00 in
04:20 32.6 °F 26.2 °F 30.03 in WSW 0.3 mph 2.3 mph 77 % 0.00 in
04:25 32.4 °F 26.0 °F 30.03 in Calm   1.2 mph 77 % 0.00 in
04:30 32.2 °F 26.1 °F 30.03 in Calm     78 % 0.00 in
04:35 32.1 °F 26.0 °F 30.03 in Calm     78 % 0.00 in
04:40 31.9 °F 25.8 °F 30.03 in Calm     78 % 0.00 in
04:45 31.7 °F 25.6 °F 30.02 in Calm     78 % 0.00 in
04:50 31.6 °F 25.5 °F 30.02 in Calm     78 % 0.00 in
04:55 31.5 °F 25.7 °F 30.02 in Calm     79 % 0.00 in
05:00 31.4 °F 25.6 °F 30.02 in Calm     79 % 0.00 in
05:05 31.3 °F 25.5 °F 30.02 in Calm     79 % 0.00 in
05:10 31.3 °F 25.8 °F 30.02 in Calm   1.0 mph 80 % 0.00 in
05:15 31.3 °F 25.8 °F 30.02 in Calm     80 % 0.00 in
05:20 31.3 °F 25.8 °F 30.02 in Calm     80 % 0.00 in
05:25 31.4 °F 26.2 °F 30.01 in Calm   1.0 mph 81 % 0.00 in
05:30 31.4 °F 26.2 °F 30.00 in Calm     81 % 0.00 in
05:35 31.4 °F 26.2 °F 30.00 in Calm     81 % 0.00 in
05:40 31.4 °F 26.2 °F 30.01 in WSW 0.3 mph 1.2 mph 81 % 0.00 in
05:45 31.4 °F 26.2 °F 30.02 in WSW 1.9 mph 3.5 mph 81 % 0.00 in
05:50 31.3 °F 26.1 °F 30.02 in SW 1.5 mph 2.0 mph 81 % 0.00 in
05:55 31.3 °F 25.8 °F 30.02 in SSW 2.3 mph 3.5 mph 80 % 0.00 in
06:00 31.3 °F 25.8 °F 30.02 in SSW 4.0 mph 4.0 mph 80 % 0.00 in
06:05 31.3 °F 25.8 °F 30.02 in SSW 2.4 mph 3.5 mph 80 % 0.00 in
06:10 31.4 °F 25.6 °F 30.01 in SW 0.9 mph 1.2 mph 79 % 0.00 in
06:16 31.4 °F 25.6 °F 30.01 in SW 0.2 mph 2.3 mph 79 % 0.00 in
06:21 31.4 °F 25.6 °F 30.02 in SSW 0.4 mph 2.3 mph 79 % 0.00 in
06:26 31.4 °F 25.3 °F 30.02 in SW 2.2 mph 3.5 mph 78 % 0.00 in
06:31 31.3 °F 25.2 °F 30.02 in SW 1.2 mph 4.0 mph 78 % 0.00 in
06:36 31.3 °F 25.2 °F 30.02 in SW 0.1 mph 1.2 mph 78 % 0.00 in
06:41 31.2 °F 25.1 °F 30.02 in SW 0.6 mph 2.3 mph 78 % 0.00 in
06:46 31.2 °F 25.1 °F 30.03 in Calm   1.2 mph 78 % 0.00 in
06:51 31.2 °F 25.1 °F 30.03 in SW 1.4 mph 3.5 mph 78 % 0.00 in
06:56 31.3 °F 25.2 °F 30.02 in SW 0.7 mph 2.3 mph 78 % 0.00 in
07:01 31.3 °F 25.2 °F 30.02 in SW 0.6 mph 2.0 mph 78 % 0.00 in
07:06 31.5 °F 25.4 °F 30.02 in Calm     78 % 0.00 in
07:11 31.6 °F 25.2 °F 30.02 in SW 0.3 mph 3.5 mph 77 % 0.00 in
07:16 31.7 °F 25.3 °F 30.03 in SW 0.1 mph 1.2 mph 77 % 0.00 in
07:21 31.9 °F 25.5 °F 30.03 in SW 0.1 mph 2.3 mph 77 % 0.00 in
07:26 32.1 °F 25.7 °F 30.03 in SW 1.0 mph 1.2 mph 77 % 0.00 in
07:31 32.3 °F 25.9 °F 30.03 in SW 1.3 mph 4.0 mph 77 % 0.00 in
07:36 32.5 °F 26.1 °F 30.04 in SW 0.2 mph 3.5 mph 77 % 0.00 in
07:41 32.8 °F 26.4 °F 30.03 in SW 2.2 mph 4.6 mph 77 % 0.00 in
07:46 33.0 °F 26.6 °F 30.04 in WSW 1.4 mph 3.5 mph 77 % 0.00 in
07:51 33.3 °F 26.5 °F 30.03 in WSW 2.5 mph 3.5 mph 76 % 0.00 in
07:56 33.6 °F 26.8 °F 30.03 in WSW 1.2 mph 5.8 mph 76 % 0.00 in
08:01 33.8 °F 27.0 °F 30.03 in WSW 0.4 mph 2.3 mph 76 % 0.00 in
08:06 34.0 °F 27.2 °F 30.04 in SW 1.3 mph 2.3 mph 76 % 0.00 in
08:11 34.2 °F 27.4 °F 30.04 in SW 0.8 mph 3.5 mph 76 % 0.00 in
08:17 34.4 °F 27.3 °F 30.04 in SW 1.0 mph 2.3 mph 75 % 0.00 in
08:22 34.5 °F 27.4 °F 30.04 in SW 1.0 mph 3.5 mph 75 % 0.00 in
08:27 34.7 °F 27.6 °F 30.04 in SW 1.8 mph 3.5 mph 75 % 0.00 in
08:32 34.8 °F 27.7 °F 30.03 in SW 0.6 mph 1.2 mph 75 % 0.00 in
08:37 34.9 °F 27.8 °F 30.03 in SSW 0.7 mph 2.3 mph 75 % 0.00 in
08:42 35.2 °F 28.1 °F 30.03 in SSW 3.5 mph 5.0 mph 75 % 0.00 in
08:47 35.5 °F 28.4 °F 30.03 in SW 3.7 mph 7.0 mph 75 % 0.00 in
08:52 35.8 °F 28.6 °F 30.03 in SW 5.8 mph 9.2 mph 75 % 0.00 in
08:57 36.1 °F 28.9 °F 30.03 in SW 3.4 mph 5.8 mph 75 % 0.00 in
09:02 36.5 °F 29.3 °F 30.04 in SW 3.3 mph 5.8 mph 75 % 0.00 in
09:07 36.8 °F 29.6 °F 30.04 in SW 3.5 mph 7.0 mph 75 % 0.00 in
09:12 37.1 °F 29.6 °F 30.04 in South 4.6 mph 7.0 mph 74 % 0.00 in
09:17 37.4 °F 29.5 °F 30.04 in SW 4.4 mph 8.0 mph 73 % 0.00 in
09:22 37.7 °F 29.8 °F 30.04 in WSW 2.3 mph 4.6 mph 73 % 0.00 in
09:27 37.9 °F 29.7 °F 30.04 in South 6.5 mph 11.5 mph 72 % 0.00 in
09:32 38.3 °F 29.7 °F 30.04 in South 5.6 mph 16.1 mph 71 % 0.00 in
09:37 38.6 °F 29.7 °F 30.04 in West 7.1 mph 11.5 mph 70 % 0.00 in
09:42 38.8 °F 29.5 °F 30.04 in SW 4.6 mph 8.1 mph 69 % 0.00 in
09:47 38.9 °F 29.6 °F 30.04 in WSW 5.6 mph 6.9 mph 69 % 0.00 in
09:52 39.0 °F 29.3 °F 30.05 in SW 4.9 mph 9.2 mph 68 % 0.00 in
09:57 39.1 °F 29.1 °F 30.04 in WSW 7.3 mph 9.2 mph 67 % 0.00 in
10:02 39.2 °F 28.8 °F 30.04 in WSW 7.6 mph 10.4 mph 66 % 0.00 in
10:07 39.3 °F 28.9 °F 30.04 in NW 4.8 mph 12.7 mph 66 % 0.00 in
10:13 39.2 °F 28.8 °F 30.05 in WSW 4.1 mph 8.1 mph 66 % 0.00 in
10:18 39.3 °F 28.5 °F 30.05 in WNW 6.7 mph 11.5 mph 65 % 0.00 in
10:23 39.5 °F 29.1 °F 30.04 in WNW 4.3 mph 11.5 mph 66 % 0.00 in
10:28 39.9 °F 29.1 °F 30.04 in West 6.9 mph 11.5 mph 65 % 0.00 in
10:33 40.3 °F 29.1 °F 30.04 in WSW 5.6 mph 10.4 mph 64 % 0.00 in
10:38 40.6 °F 29.4 °F 30.04 in WNW 5.0 mph 10.0 mph 64 % 0.00 in
10:43 40.8 °F 28.8 °F 30.04 in NW 4.3 mph 8.0 mph 62 % 0.00 in
10:48 41.2 °F 28.8 °F 30.04 in West 5.9 mph 9.2 mph 61 % 0.00 in
10:53 41.6 °F 28.7 °F 30.03 in West 8.0 mph 13.8 mph 60 % 0.00 in
10:58 41.9 °F 28.6 °F 30.03 in WSW 6.7 mph 9.2 mph 59 % 0.00 in
11:03 42.0 °F 28.3 °F 30.03 in WSW 5.8 mph 9.0 mph 58 % 0.00 in
11:08 42.1 °F 27.9 °F 30.03 in WNW 5.8 mph 10.0 mph 57 % 0.00 in
11:13 42.1 °F 27.1 °F 30.03 in SW 6.2 mph 11.5 mph 55 % 0.00 in
11:18 42.2 °F 26.7 °F 30.03 in WNW 6.1 mph 11.0 mph 54 % 0.00 in
11:23 42.1 °F 26.6 °F 30.03 in West 6.6 mph 9.2 mph 54 % 0.00 in
11:28 42.1 °F 26.6 °F 30.02 in WNW 6.2 mph 10.4 mph 54 % 0.00 in
11:33 42.1 °F 26.2 °F 30.02 in WNW 5.0 mph 10.0 mph 53 % 0.00 in
11:38 42.1 °F 26.2 °F 30.02 in West 2.0 mph 10.0 mph 53 % 0.00 in
11:43 42.1 °F 27.1 °F 30.01 in West 3.0 mph 6.0 mph 55 % 0.00 in
11:48 42.2 °F 27.6 °F 30.01 in WSW 5.0 mph 9.0 mph 56 % 0.00 in
11:53 42.3 °F 27.3 °F 30.00 in SSW 7.2 mph 10.4 mph 55 % 0.00 in
11:58 42.3 °F 27.3 °F 30.00 in WSW 5.7 mph 9.0 mph 55 % 0.00 in
12:04 42.4 °F 26.9 °F 30.00 in SW 8.8 mph 11.5 mph 54 % 0.00 in
12:09 42.4 °F 27.4 °F 30.00 in WSW 5.0 mph 10.4 mph 55 % 0.00 in
12:14 42.6 °F 27.1 °F 30.00 in WSW 3.8 mph 6.9 mph 54 % 0.00 in
12:19 42.8 °F 27.3 °F 30.00 in West 5.6 mph 9.2 mph 54 % 0.00 in
12:24 43.0 °F 26.6 °F 29.99 in WNW 4.7 mph 11.5 mph 52 % 0.00 in
12:29 43.0 °F 26.1 °F 29.99 in WSW 3.9 mph 5.8 mph 51 % 0.00 in
12:34 42.9 °F 26.0 °F 29.99 in SW 6.3 mph 11.5 mph 51 % 0.00 in
12:39 42.9 °F 26.0 °F 29.99 in West 3.5 mph 5.8 mph 51 % 0.00 in
12:44 42.9 °F 26.0 °F 29.99 in WNW 2.0 mph 4.0 mph 51 % 0.00 in
12:49 42.7 °F 25.3 °F 29.99 in WSW 2.5 mph 4.0 mph 50 % 0.00 in
12:54 42.7 °F 26.3 °F 29.99 in SW 3.7 mph 9.0 mph 52 % 0.00 in
12:59 42.8 °F 25.4 °F 29.99 in WSW 4.8 mph 7.0 mph 50 % 0.00 in
13:04 42.9 °F 25.5 °F 29.99 in West 4.5 mph 9.0 mph 50 % 0.00 in
13:09 43.2 °F 24.8 °F 29.99 in NW 4.1 mph 9.0 mph 48 % 0.00 in
13:14 43.5 °F 23.5 °F 29.98 in SW 5.2 mph 12.7 mph 45 % 0.00 in
13:19 43.5 °F 24.1 °F 29.98 in WSW 1.2 mph 11.5 mph 46 % 0.00 in
13:24 43.3 °F 23.4 °F 29.98 in WSW 6.8 mph 10.4 mph 45 % 0.00 in
13:29 43.1 °F 24.2 °F 29.98 in WNW 5.7 mph 9.2 mph 47 % 0.00 in
13:34 43.0 °F 24.6 °F 29.98 in WNW 1.5 mph 3.5 mph 48 % 0.00 in
13:39 43.0 °F 24.1 °F 29.98 in SW 6.5 mph 9.2 mph 47 % 0.00 in
13:44 43.0 °F 24.1 °F 29.98 in WSW 3.7 mph 7.0 mph 47 % 0.00 in
13:49 43.0 °F 23.6 °F 29.98 in WNW 4.5 mph 11.5 mph 46 % 0.00 in
13:54 43.0 °F 24.1 °F 29.98 in WSW 4.6 mph 9.0 mph 47 % 0.00 in
13:59 43.2 °F 23.3 °F 29.98 in WNW 3.5 mph 8.1 mph 45 % 0.00 in
14:05 43.6 °F 23.1 °F 29.98 in West 9.2 mph 11.5 mph 44 % 0.00 in
14:10 44.0 °F 22.4 °F 29.98 in West 7.5 mph 11.5 mph 42 % 0.00 in
14:15 44.2 °F 23.1 °F 29.98 in West 5.4 mph 12.0 mph 43 % 0.00 in
14:20 44.4 °F 23.3 °F 29.98 in West 4.8 mph 10.4 mph 43 % 0.00 in
14:25 44.5 °F 22.8 °F 29.98 in SW 6.5 mph 12.7 mph 42 % 0.00 in
14:30 44.5 °F 22.2 °F 29.98 in West 5.3 mph 11.5 mph 41 % 0.00 in
14:35 44.3 °F 22.1 °F 29.99 in WNW 7.5 mph 15.0 mph 41 % 0.00 in
14:40 44.1 °F 22.4 °F 29.99 in WNW 3.4 mph 11.5 mph 42 % 0.00 in
14:45 43.8 °F 23.3 °F 29.99 in WNW 4.2 mph 10.4 mph 44 % 0.00 in
14:50 43.6 °F 23.1 °F 29.99 in West 6.4 mph 10.4 mph 44 % 0.00 in
14:55 43.5 °F 23.0 °F 29.99 in NW 6.3 mph 9.2 mph 44 % 0.00 in
15:00 43.2 °F 22.7 °F 29.99 in West 4.2 mph 8.1 mph 44 % 0.00 in
15:05 43.1 °F 22.6 °F 29.99 in WNW 2.9 mph 5.8 mph 44 % 0.00 in
15:10 43.1 °F 23.7 °F 30.00 in WNW 4.9 mph 9.2 mph 46 % 0.00 in
15:15 43.1 °F 23.7 °F 30.00 in WNW 6.4 mph 15.0 mph 46 % 0.00 in
15:20 43.1 °F 23.7 °F 30.00 in NW 5.3 mph 9.2 mph 46 % 0.00 in
15:25 43.1 °F 23.7 °F 30.00 in WNW 4.8 mph 9.0 mph 46 % 0.00 in
15:30 43.0 °F 23.6 °F 30.01 in WNW 5.9 mph 5.9 mph 46 % 0.00 in
15:35 42.9 °F 23.5 °F 30.00 in WSW 3.4 mph 8.1 mph 46 % 0.00 in
15:40 42.7 °F 23.3 °F 30.01 in West 6.8 mph 12.7 mph 46 % 0.00 in
15:45 42.5 °F 23.7 °F 30.01 in NNW 7.5 mph 12.0 mph 47 % 0.00 in
15:50 42.2 °F 23.9 °F 30.01 in NW 10.2 mph 11.5 mph 48 % 0.00 in
15:55 42.1 °F 24.8 °F 30.02 in West 6.1 mph 12.7 mph 50 % 0.00 in
16:00 42.0 °F 26.1 °F 30.02 in SW 2.2 mph 5.0 mph 53 % 0.00 in
16:05 42.0 °F 25.6 °F 30.02 in WNW 4.7 mph 11.0 mph 52 % 0.00 in
16:11 41.8 °F 25.9 °F 30.02 in WSW 7.4 mph 11.5 mph 53 % 0.00 in
16:16 41.7 °F 25.8 °F 30.03 in WNW 7.3 mph 11.5 mph 53 % 0.00 in
16:21 41.5 °F 27.4 °F 30.03 in NNW 7.4 mph 11.5 mph 57 % 0.00 in
16:26 41.2 °F 27.1 °F 30.03 in NW 9.1 mph 16.1 mph 57 % 0.00 in
16:31 41.0 °F 27.3 °F 30.03 in NW 5.8 mph 11.5 mph 58 % 0.00 in
16:36 40.7 °F 27.1 °F 30.03 in WNW 3.0 mph 5.8 mph 58 % 0.00 in
16:41 40.4 °F 25.5 °F 30.04 in WNW 6.4 mph 11.5 mph 55 % 0.00 in
16:46 40.1 °F 24.8 °F 30.04 in WNW 7.8 mph 12.7 mph 54 % 0.00 in
16:51 39.7 °F 24.4 °F 30.04 in WNW 7.4 mph 15.0 mph 54 % 0.00 in
16:53 39.6 °F 24.7 °F 30.04 in WNW 2.4 mph 6.9 mph 55 % 0.00 in
16:58 39.4 °F 24.1 °F 30.05 in WNW 5.9 mph 10.0 mph 54 % 0.00 in
17:03 39.3 °F 24.0 °F 30.05 in WNW 3.5 mph 8.1 mph 54 % 0.00 in
17:08 39.2 °F 23.9 °F 30.05 in WNW 2.9 mph 6.9 mph 54 % 0.00 in
17:13 39.1 °F 23.8 °F 30.06 in West 3.8 mph 8.1 mph 54 % 0.00 in
17:18 39.0 °F 24.2 °F 30.06 in WNW 2.7 mph 6.9 mph 55 % 0.00 in
17:23 38.9 °F 24.5 °F 30.06 in NNW 5.1 mph 9.2 mph 56 % 0.00 in
17:28 38.7 °F 23.9 °F 30.06 in NW 4.4 mph 11.5 mph 55 % 0.00 in
17:33 38.6 °F 24.2 °F 30.06 in WNW 5.0 mph 7.0 mph 56 % 0.00 in
17:38 38.6 °F 24.7 °F 30.06 in West 3.0 mph 8.0 mph 57 % 0.00 in
17:43 38.4 °F 24.1 °F 30.06 in West 4.2 mph 10.4 mph 56 % 0.00 in
17:48 38.4 °F 24.1 °F 30.06 in WNW 6.2 mph 11.0 mph 56 % 0.00 in
17:53 38.4 °F 23.6 °F 30.06 in West 6.4 mph 10.4 mph 55 % 0.00 in
17:58 38.3 °F 23.5 °F 30.06 in NW 3.3 mph 5.8 mph 55 % 0.00 in
18:03 38.3 °F 23.5 °F 30.06 in WSW 3.8 mph 8.1 mph 55 % 0.00 in
18:08 38.3 °F 23.5 °F 30.07 in NW 6.0 mph 11.5 mph 55 % 0.00 in
18:13 38.3 °F 23.5 °F 30.07 in West 6.0 mph 13.0 mph 55 % 0.00 in
18:18 38.3 °F 23.5 °F 30.07 in WNW 3.0 mph 8.0 mph 55 % 0.00 in
18:23 38.2 °F 23.0 °F 30.07 in WNW 6.0 mph 9.0 mph 54 % 0.00 in
18:28 38.2 °F 23.4 °F 30.07 in West 3.0 mph 12.0 mph 55 % 0.00 in
18:33 38.1 °F 23.8 °F 30.08 in WSW 3.7 mph 4.6 mph 56 % 0.00 in
18:38 38.1 °F 23.8 °F 30.08 in West 3.0 mph 12.0 mph 56 % 0.00 in
18:43 37.9 °F 23.6 °F 30.08 in West 3.0 mph 10.0 mph 56 % 0.00 in
18:48 37.9 °F 23.6 °F 30.08 in West 6.0 mph 13.0 mph 56 % 0.00 in
18:53 37.8 °F 24.3 °F 30.09 in WNW 2.7 mph 4.0 mph 58 % 0.00 in
18:58 37.7 °F 24.6 °F 30.09 in NW 3.2 mph 6.9 mph 59 % 0.00 in
19:04 37.6 °F 23.7 °F 30.09 in WSW 7.2 mph 17.3 mph 57 % 0.00 in
19:09 37.5 °F 22.8 °F 30.09 in WNW 3.2 mph 9.2 mph 55 % 0.00 in
19:14 37.4 °F 22.7 °F 30.09 in WNW 6.3 mph 13.8 mph 55 % 0.00 in
19:19 37.3 °F 22.6 °F 30.10 in WSW 3.9 mph 10.4 mph 55 % 0.00 in
19:24 37.2 °F 22.5 °F 30.09 in West 4.3 mph 10.4 mph 55 % 0.00 in
19:29 37.1 °F 22.4 °F 30.10 in WNW 4.3 mph 10.0 mph 55 % 0.00 in
19:34 37.1 °F 22.8 °F 30.10 in WNW 2.5 mph 5.8 mph 56 % 0.00 in
19:39 37.0 °F 21.9 °F 30.11 in WNW 5.5 mph 10.4 mph 54 % 0.00 in
19:44 36.9 °F 21.8 °F 30.11 in West 6.3 mph 11.5 mph 54 % 0.00 in
19:49 36.9 °F 21.8 °F 30.11 in NW 1.9 mph 8.1 mph 54 % 0.00 in
19:54 36.8 °F 21.7 °F 30.11 in WNW 5.8 mph 12.7 mph 54 % 0.00 in
19:59 36.8 °F 22.6 °F 30.11 in WNW 6.7 mph 11.5 mph 56 % 0.00 in
20:04 36.7 °F 22.5 °F 30.12 in NW 5.1 mph 8.1 mph 56 % 0.00 in
20:09 36.6 °F 23.6 °F 30.12 in NNW 5.1 mph 10.4 mph 59 % 0.00 in
20:14 36.4 °F 24.2 °F 30.12 in NNW 5.6 mph 10.4 mph 61 % 0.00 in
20:19 36.2 °F 23.6 °F 30.12 in NNW 3.5 mph 6.9 mph 60 % 0.00 in
20:24 36.1 °F 23.5 °F 30.12 in NW 5.6 mph 11.5 mph 60 % 0.00 in
20:29 35.8 °F 23.3 °F 30.12 in North 5.2 mph 7.0 mph 60 % 0.00 in
20:34 35.6 °F 23.5 °F 30.13 in WNW 6.5 mph 12.0 mph 61 % 0.00 in
20:39 35.5 °F 23.4 °F 30.13 in NNW 5.7 mph 10.4 mph 61 % 0.00 in
20:44 35.3 °F 23.2 °F 30.13 in NNW 6.2 mph 8.0 mph 61 % 0.00 in
20:49 35.2 °F 23.1 °F 30.14 in WNW 2.8 mph 6.9 mph 61 % 0.00 in
20:54 35.0 °F 22.9 °F 30.14 in NW 6.2 mph 6.2 mph 61 % 0.00 in
20:59 34.9 °F 22.4 °F 30.14 in North 4.2 mph 9.2 mph 60 % 0.00 in
21:04 34.7 °F 22.2 °F 30.14 in NW 3.7 mph 11.5 mph 60 % 0.00 in
21:10 34.6 °F 22.5 °F 30.14 in WNW 4.5 mph 10.4 mph 61 % 0.00 in
21:15 34.5 °F 22.4 °F 30.14 in North 4.8 mph 12.0 mph 61 % 0.00 in
21:20 34.3 °F 21.8 °F 30.15 in North 5.7 mph 11.5 mph 60 % 0.00 in
21:25 34.2 °F 21.7 °F 30.15 in NNW 4.7 mph 10.0 mph 60 % 0.00 in
21:30 34.0 °F 21.6 °F 30.15 in WNW 3.9 mph 9.2 mph 60 % 0.00 in
21:35 33.9 °F 21.5 °F 30.15 in North 3.8 mph 6.9 mph 60 % 0.00 in
21:40 33.8 °F 21.4 °F 30.15 in NNW 3.9 mph 6.9 mph 60 % 0.00 in
21:45 33.7 °F 20.9 °F 30.15 in NW 2.4 mph 5.8 mph 59 % 0.00 in
21:50 33.7 °F 21.3 °F 30.15 in NNW 2.8 mph 10.4 mph 60 % 0.00 in
21:55 33.5 °F 21.1 °F 30.15 in NW 3.7 mph 11.5 mph 60 % 0.00 in
22:00 33.5 °F 21.1 °F 30.15 in NW 3.9 mph 4.6 mph 60 % 0.00 in
22:05 33.4 °F 21.0 °F 30.16 in NNW 5.0 mph 10.4 mph 60 % 0.00 in
22:10 33.4 °F 21.0 °F 30.15 in NNW 4.8 mph 8.1 mph 60 % 0.00 in
22:15 33.3 °F 20.9 °F 30.15 in WNW 4.5 mph 9.2 mph 60 % 0.00 in
22:20 33.2 °F 20.4 °F 30.15 in NW 4.6 mph 8.1 mph 59 % 0.00 in
22:25 33.2 °F 20.8 °F 30.15 in North 4.4 mph 6.9 mph 60 % 0.00 in
22:30 33.1 °F 21.1 °F 30.15 in NW 1.6 mph 6.0 mph 61 % 0.00 in
22:35 33.0 °F 21.0 °F 30.15 in WNW 4.5 mph 8.0 mph 61 % 0.00 in
22:40 32.9 °F 20.5 °F 30.15 in NW 2.2 mph 9.2 mph 60 % 0.00 in
22:45 32.8 °F 20.4 °F 30.15 in North 3.9 mph 6.9 mph 60 % 0.00 in
22:50 32.8 °F 20.4 °F 30.16 in WNW 4.6 mph 10.0 mph 60 % 0.00 in
22:55 32.8 °F 20.4 °F 30.16 in West 4.9 mph 11.5 mph 60 % 0.00 in
23:00 32.8 °F 20.0 °F 30.16 in WNW 4.7 mph 7.0 mph 59 % 0.00 in
23:06 32.7 °F 19.9 °F 30.16 in WNW 4.9 mph 9.2 mph 59 % 0.00 in
23:11 32.6 °F 19.4 °F 30.16 in WNW 5.8 mph 11.5 mph 58 % 0.00 in
23:16 32.6 °F 19.4 °F 30.16 in WNW 2.4 mph 5.0 mph 58 % 0.00 in
23:21 32.5 °F 19.3 °F 30.16 in WNW 1.6 mph 4.6 mph 58 % 0.00 in
23:26 32.4 °F 19.3 °F 30.16 in West 4.8 mph 11.5 mph 58 % 0.00 in
23:31 32.3 °F 19.2 °F 30.16 in West 5.6 mph 8.1 mph 58 % 0.00 in
23:36 32.3 °F 19.2 °F 30.16 in NW 3.3 mph 8.1 mph 58 % 0.00 in
23:41 32.2 °F 19.1 °F 30.16 in WNW 2.6 mph 6.9 mph 58 % 0.00 in
23:46 32.1 °F 19.0 °F 30.16 in WNW 5.7 mph 11.0 mph 58 % 0.00 in
23:51 32.1 °F 19.0 °F 30.16 in NNW 2.2 mph 4.6 mph 58 % 0.00 in
23:56 32.1 °F 19.4 °F 30.16 in NNW 2.6 mph 8.0 mph 59 % 0.00 in
Crab Meadow Weather
Compliments of Weather Underground - 3 mb

Script developed by  Jim McMurry - jmcmurry@mwt.net Adapted for the template by  Wim van der Kuil - Leuven-Template.eu

Astronomy: It takes 16 million horsepower to break loose from the Earth's gravitational pull.